Вернуться в каталог

STARLINK-3451

АктивенСвязьVLEO
NORAD 51749·PAYLOAD·🇺🇸 United States

Запущен Feb 21, 2022 с Cape Canaveral Space Force Station

Loading…

Ближайшие Пролёты (ближайшие 24 часа)

TLE

СвежийSource: CelesTrak SupGP

Эпоха: Sep 15, 2026, 02:09 UTC

1 51749C 22016AM  26258.09006944 -.00019002  00000+0 -61114-3 0  2589
2 51749  53.1568 175.9921 0001392  90.7336  29.6405 15.31707356    18

Отслеживайте STARLINK-3451 в реальном времени с AllMySat

Download on the App Store